[[{"header":{"parameterUnit":"m.s-1","parameterCategory":1,"la1":30.2991,"la2":30.254,"lo1":-89.0895,"lo2":-89.0444,"dy":0.0017,"dx":0.0017,"nx":28,"ny":28,"refTime":"2025-08-17T03:00:00:Z","depth":0,"parameterNumber":2,"parameterNumberName":"U-component_of_WINDS"},"data":[0,0,0,0,0,0,0,0,0,0,0,0,0,0,0,0,0,0,0,0,0,0,0,0,0,0,0,0,0,0,0,0,0,0,0,0,0,0,0,0,0,0,0,0,0,0,0,0,0,0,0,0,0,0,0,0,0,0,1.4501,1.4501,0,1.447,1.447,1.447,1.4453,1.4453,1.4453,1.4453,1.442,1.442,1.4419,0,0,0,0,0,0,0,0,0,0,0,0,0,1.4546,1.4545,1.4501,1.4501,1.45,1.447,1.447,1.4469,1.4453,1.4453,1.4453,1.4453,1.4421,1.442,1.4419,0,0,0,0,0,0,0,0,0,0,0,0,0,1.4522,1.4545,1.4501,1.4488,1.4487,1.447,1.447,1.4469,1.4453,1.4453,1.4453,1.4453,1.4421,1.442,1.4418,1.4412,0,0,1.4415,1.4414,0,0,0,0,0,0,0,0,1.4523,1.452,1.4491,1.4489,1.4488,1.4465,1.4474,1.445,1.4453,1.4466,1.4453,1.4453,1.4435,1.4433,1.4427,1.441,1.4409,1.4415,1.4414,1.4413,1.4413,0,0,0,0,0,0,0,1.4525,1.4521,1.4489,1.449,1.4488,1.4484,1.4481,1.4469,1.4451,1.4465,1.4463,1.446,1.4434,1.4428,1.4426,1.4408,1.4415,1.4413,1.4413,1.4412,1.4386,1.4386,0,0,0,0,0,0,1.4529,1.4523,1.449,1.4488,1.4506,1.4484,1.448,1.4473,1.4451,1.4448,1.446,1.4459,1.4431,1.4428,1.4425,1.4416,1.4413,1.4412,1.4411,1.4386,1.4386,1.4386,0,0,0,0,0,0,1.453,1.4526,1.4491,1.4505,1.45,1.4483,1.4475,1.4472,1.4466,1.4448,1.4445,1.4457,1.443,1.4427,1.4416,1.4415,1.4412,1.441,1.4386,1.4386,1.4386,1.4399,0,0,0,0,0,0,1.4531,1.4526,1.4523,1.4505,1.45,1.4482,1.4475,1.4471,1.4464,1.4463,1.4444,1.4441,1.443,1.4418,1.4414,1.4413,1.4409,1.4386,1.4386,1.4386,1.4398,1.4399,1.44,0,0,0,0,0,1.4533,1.4527,1.4523,1.4519,1.4496,1.4482,1.4479,1.4466,1.4464,1.4461,1.445,1.4442,1.4416,1.4417,1.4413,1.4411,1.4386,1.4386,1.4386,1.4398,1.4399,1.44,0,0,0,0,0,0,1.4545,1.4525,1.452,1.4508,1.4497,1.4479,1.4475,1.4468,1.4456,1.4456,1.4441,1.4437,1.4427,1.4418,1.4419,1.4405,1.44,1.44,1.4411,1.4412,1.4412,1.4414,1.4408,0,0,0,0,0,1.4546,1.4537,1.452,1.4512,1.4507,1.4492,1.4485,1.4477,1.4465,1.4459,1.4447,1.4435,1.4425,1.4418,1.4407,1.4398,1.4394,1.4395,1.4396,1.4397,1.4396,1.4392,1.4392,1.4387,1.4387,1.4387,0,0,1.4549,1.4537,1.4532,1.4514,1.4504,1.4495,1.4488,1.4478,1.4471,1.4458,1.4447,1.4438,1.4424,1.4414,1.4409,1.4406,1.4397,1.4397,1.4398,1.4397,1.4392,1.4392,1.4393,1.4387,1.4387,1.4387,0,0,1.4549,1.4539,1.4531,1.4523,1.4508,1.4499,1.4497,1.4481,1.4475,1.4464,1.4454,1.4446,1.4428,1.4418,1.4411,1.4411,1.4403,1.4408,1.4412,1.4408,1.4408,1.4408,1.4408,1.4408,1.4407,1.4407,1.4407,0,1.4554,1.454,1.4528,1.452,1.4513,1.4502,1.4494,1.4486,1.4469,1.4464,1.4462,1.444,1.4429,1.4418,1.4418,1.4413,1.441,1.4409,1.4409,1.4409,1.4409,1.4409,1.4409,1.4408,1.4408,1.4408,1.4408,0,1.4547,1.4537,1.4533,1.4518,1.451,1.4502,1.449,1.4484,1.4478,1.4469,1.4458,1.4446,1.4433,1.443,1.4423,1.4418,1.4416,1.4412,1.4407,1.4411,1.441,1.441,1.4409,1.4409,1.4409,1.4408,0,0,1.4551,1.4531,1.453,1.4524,1.4508,1.4501,1.4493,1.4481,1.4477,1.4466,1.4459,1.4446,1.4442,1.4434,1.4426,1.4422,1.4423,1.4418,1.4418,1.4419,1.4418,1.4421,1.4421,1.4419,1.4419,1.4419,1.4419,0,1.4548,1.4534,1.4525,1.4514,1.4506,1.4497,1.449,1.448,1.4473,1.4465,1.4456,1.4447,1.4442,1.4438,1.4434,1.4424,1.4423,1.4424,1.4412,1.4412,1.4415,1.442,1.4423,1.4423,1.4419,1.4418,1.4418,0,1.4542,1.4533,1.4522,1.451,1.4506,1.45,1.4489,1.4482,1.4471,1.4466,1.4458,1.4451,1.4443,1.444,1.443,1.4431,1.4426,1.4421,1.4421,1.4418,1.4415,1.4417,1.4423,1.4422,1.4418,1.4418,1.4418,0,1.4547,1.4531,1.4523,1.4518,1.4503,1.4499,1.4493,1.4483,1.4477,1.4468,1.4464,1.4454,1.4448,1.4441,1.4431,1.443,1.4422,1.4418,1.4417,1.4417,1.4414,1.4414,1.4418,1.4413,1.4413,1.4413,1.4413,0,1.4544,1.4537,1.4525,1.4519,1.4512,1.4503,1.4496,1.4489,1.448,1.4474,1.4466,1.446,1.4448,1.4441,1.4433,1.4426,1.4423,1.4419,1.4417,1.4419,1.442,1.4415,1.4414,1.4413,1.4413,1.4413,1.4413,0,1.4546,1.4538,1.4528,1.4516,1.4513,1.4508,1.4497,1.4492,1.4485,1.4477,1.4475,1.4464,1.4455,1.4445,1.4433,1.4428,1.4421,1.4419,1.4425,1.4423,1.4423,1.4423,1.4423,1.4422,1.4418,1.4418,1.4418,0,1.4544,1.4539,1.4527,1.4523,1.4517,1.451,1.4504,1.4495,1.449,1.4479,1.4475,1.4466,1.4458,1.4445,1.4436,1.4427,1.4424,1.4425,1.4422,1.4425,1.4423,1.4424,1.4423,1.4425,1.4425,1.4425,1.4425,0,1.4542,1.4539,1.4532,1.4523,1.4517,1.451,1.4502,1.4499,1.4489,1.4483,1.4475,1.4469,1.4458,1.4449,1.444,1.4433,1.4427,1.4426,1.4426,1.4427,1.4431,1.4428,1.4426,1.4426,1.4426,1.4426,1.4426,1.4426,1.4542,1.4538,1.4529,1.4522,1.4516,1.4509,1.4504,1.4497,1.449,1.4481,1.4476,1.4468,1.4459,1.4446,1.4441,1.4434,1.4432,1.4431,1.4431,1.443,1.4431,1.4433,1.4432,1.4432,1.4432,1.4432,1.4432,0,1.4539,1.4534,1.4527,1.4518,1.4512,1.4509,1.4501,1.4496,1.4489,1.4482,1.4475,1.4466,1.4459,1.445,1.4442,1.4438,1.4436,1.4436,1.4436,1.4435,1.4433,1.4434,1.4439,1.4439,1.4439,1.4439,1.4439,1.4439,1.4537,1.453,1.4526,1.4516,1.4511,1.4503,1.4499,1.4493,1.4488,1.4478,1.4472,1.4467,1.4459,1.4451,1.4444,1.4442,1.4439,1.444,1.4437,1.4435,1.4435,1.4434,1.4435,1.444,1.444,1.4439,1.4439,1.4439]},{"header":{"parameterUnit":"m.s-1","parameterCategory":1,"la1":30.2991,"la2":30.254,"lo1":-89.0895,"lo2":-89.0444,"dy":0.0017,"dx":0.0017,"nx":28,"ny":28,"refTime":"2025-08-17T03:00:00:Z","depth":0,"parameterNumber":3,"parameterNumberName":"V-component_of_WINDS"},"data":[0,0,0,0,0,0,0,0,0,0,0,0,0,0,0,0,0,0,0,0,0,0,0,0,0,0,0,0,0,0,0,0,0,0,0,0,0,0,0,0,0,0,0,0,0,0,0,0,0,0,0,0,0,0,0,0,0,0,1.6617,1.6617,0,1.6616,1.6616,1.6616,1.6611,1.6611,1.6611,1.661,1.6604,1.6604,1.6604,0,0,0,0,0,0,0,0,0,0,0,0,0,1.6614,1.6614,1.6617,1.6617,1.6617,1.6616,1.6616,1.6616,1.6611,1.6611,1.6611,1.661,1.6604,1.6604,1.6604,0,0,0,0,0,0,0,0,0,0,0,0,0,1.6614,1.6614,1.6617,1.6615,1.6615,1.6616,1.6616,1.6616,1.6611,1.6611,1.6611,1.661,1.6604,1.6604,1.6604,1.6606,0,0,1.6604,1.6604,0,0,0,0,0,0,0,0,1.6614,1.6614,1.6615,1.6615,1.6615,1.6613,1.6612,1.6612,1.6611,1.6612,1.661,1.661,1.6607,1.6607,1.6606,1.6606,1.6605,1.6604,1.6603,1.6603,1.6603,0,0,0,0,0,0,0,1.6614,1.6614,1.6617,1.6615,1.6615,1.6613,1.6613,1.6612,1.661,1.6612,1.6612,1.6612,1.6607,1.6607,1.6606,1.6605,1.6604,1.6603,1.6603,1.6603,1.6608,1.6608,0,0,0,0,0,0,1.6615,1.6614,1.6617,1.6617,1.6614,1.6613,1.6613,1.6614,1.661,1.661,1.6612,1.6612,1.6607,1.6606,1.6606,1.6609,1.6603,1.6603,1.6603,1.6607,1.6608,1.6608,0,0,0,0,0,0,1.6615,1.6615,1.6617,1.6615,1.6615,1.6613,1.6614,1.6614,1.6614,1.661,1.6609,1.6612,1.6607,1.6606,1.6607,1.6609,1.6603,1.6603,1.6607,1.6607,1.6608,1.6614,0,0,0,0,0,0,1.6615,1.6615,1.6616,1.6615,1.6616,1.6618,1.6615,1.6614,1.6614,1.6614,1.661,1.661,1.6607,1.6607,1.6607,1.6608,1.6603,1.6607,1.6607,1.6608,1.6614,1.6615,1.6616,0,0,0,0,0,1.6614,1.6617,1.6616,1.6617,1.6617,1.6618,1.6618,1.6616,1.6614,1.6615,1.6613,1.661,1.6609,1.6607,1.6607,1.6608,1.6607,1.6607,1.6608,1.6614,1.6615,1.6616,0,0,0,0,0,0,1.6616,1.6617,1.6616,1.6618,1.6619,1.6618,1.6618,1.6617,1.6616,1.6616,1.6612,1.6611,1.6612,1.661,1.6608,1.6611,1.6607,1.6608,1.6612,1.6613,1.6614,1.6614,1.6603,0,0,0,0,0,1.6617,1.6619,1.6619,1.6621,1.6621,1.662,1.662,1.6619,1.6619,1.6618,1.6616,1.6614,1.6614,1.6613,1.6613,1.6614,1.6613,1.6615,1.6616,1.6617,1.6617,1.6618,1.6619,1.6609,1.6609,1.6609,0,0,1.6618,1.6619,1.662,1.6621,1.6621,1.6623,1.662,1.6621,1.6622,1.6618,1.6619,1.6617,1.6615,1.6617,1.6617,1.6615,1.662,1.6617,1.6618,1.6617,1.6619,1.662,1.6621,1.6609,1.6609,1.6609,0,0,1.6621,1.6622,1.6624,1.6625,1.6626,1.6626,1.6626,1.6626,1.6626,1.6627,1.6624,1.6625,1.6624,1.6623,1.6622,1.6628,1.6624,1.6628,1.6631,1.6633,1.6634,1.6634,1.6637,1.6637,1.6628,1.6628,1.6628,0,1.6621,1.6625,1.6625,1.6627,1.6628,1.6627,1.6629,1.663,1.6629,1.663,1.6628,1.6628,1.6627,1.6628,1.663,1.663,1.663,1.6627,1.6634,1.6635,1.6635,1.6637,1.6638,1.6628,1.6628,1.6628,1.6628,0,1.6626,1.6628,1.663,1.6633,1.6634,1.6636,1.6636,1.6637,1.6636,1.6636,1.6638,1.6637,1.6636,1.6637,1.6635,1.6638,1.6637,1.6635,1.6631,1.6637,1.6638,1.6639,1.6629,1.6629,1.6628,1.6628,0,0,1.6627,1.6632,1.6633,1.6635,1.6637,1.6638,1.6641,1.6642,1.6643,1.6644,1.6645,1.6646,1.6645,1.6644,1.6642,1.6644,1.6649,1.6641,1.6641,1.6643,1.6653,1.6655,1.6656,1.6648,1.6648,1.6648,1.6654,0,1.663,1.6636,1.6637,1.6642,1.6644,1.6644,1.6646,1.6648,1.6648,1.6649,1.6649,1.665,1.6648,1.6648,1.6649,1.6648,1.6651,1.6648,1.6648,1.6648,1.6648,1.6657,1.6658,1.6663,1.6654,1.6654,1.6654,0,1.6634,1.6637,1.6642,1.6646,1.6647,1.6649,1.6652,1.6653,1.6655,1.6655,1.6656,1.6655,1.6657,1.6654,1.6657,1.6655,1.6655,1.6655,1.6655,1.6654,1.6651,1.6656,1.6664,1.6665,1.6655,1.6655,1.6655,0,1.6635,1.664,1.6644,1.6646,1.665,1.6652,1.6653,1.6655,1.6657,1.6658,1.6659,1.6661,1.6661,1.6662,1.6661,1.6659,1.6664,1.6661,1.6664,1.6664,1.6664,1.6664,1.6672,1.6665,1.6665,1.6665,1.6665,0,1.6637,1.664,1.6645,1.6648,1.6651,1.6653,1.6657,1.6658,1.666,1.6662,1.6662,1.6664,1.6663,1.6665,1.6664,1.6667,1.6667,1.6667,1.6666,1.6666,1.6666,1.6666,1.6665,1.6665,1.6665,1.6665,1.6665,0,1.6638,1.6641,1.6646,1.6651,1.6652,1.6655,1.6658,1.6661,1.6662,1.6665,1.6666,1.6667,1.667,1.667,1.6671,1.6671,1.6674,1.6674,1.6674,1.6674,1.6677,1.6676,1.6685,1.6686,1.6678,1.6678,1.6678,0,1.6639,1.6642,1.6648,1.6651,1.6653,1.6657,1.6659,1.6661,1.6663,1.6667,1.6669,1.6672,1.6674,1.6678,1.6678,1.668,1.6679,1.6682,1.6679,1.6679,1.6679,1.6678,1.6679,1.6682,1.6682,1.6682,1.6682,0,1.6641,1.6643,1.6647,1.6653,1.6656,1.666,1.6663,1.6665,1.6668,1.667,1.6674,1.6676,1.6679,1.6682,1.6684,1.6685,1.6684,1.6684,1.6684,1.6684,1.6684,1.6684,1.6675,1.6683,1.6683,1.6683,1.6683,1.6683,1.6641,1.6645,1.665,1.6655,1.6659,1.6663,1.6665,1.6668,1.6672,1.6676,1.6677,1.6681,1.6684,1.6687,1.6688,1.6691,1.669,1.6691,1.6691,1.6691,1.6691,1.6685,1.6691,1.6691,1.6691,1.6691,1.6691,0,1.6643,1.6647,1.6652,1.6658,1.6663,1.6664,1.6668,1.6671,1.6675,1.6679,1.6682,1.6687,1.669,1.6692,1.6695,1.6697,1.6697,1.6698,1.6697,1.6697,1.6692,1.6691,1.6698,1.6698,1.6698,1.6698,1.6698,1.6698,1.6644,1.665,1.6653,1.6661,1.6665,1.667,1.6673,1.6676,1.6679,1.6685,1.6689,1.6691,1.6694,1.6698,1.6701,1.6701,1.6702,1.6703,1.6703,1.6698,1.6697,1.6697,1.6696,1.6704,1.6704,1.6708,1.6708,1.6708]}]]